Current weather by "City, St" or "zip code"  
 
Advertise Here

Current Conditions: COLEMAN, TX

Fair


76.0 F

Last Updated on Sep 16 2021, 10:55 pm CDT
Humidity: 57%
Wind Speed: E 4.6 mph
Barometer 29.95 in
Dewpoint: 59.5 F
Visibility: 10.00 mi
Precip: --
Heat Index: NA
Wind Chill: NA
Current conditions at:

COLEMAN, TX (KCOM)

Lat: 31.84 Lon: 99.4

Local Radar Image active severe weather and emergency alerts image image weather storm and storm spotter reports image weather observation monitoring service image
Local
Radar
Active
Alerts
Storm Reports Obs
Monitoring

Sign-up For Email & Text Message Weather Alert Notification Services



Advertise Here

Observation History for COLEMAN, TX


Time Wind
(mph)
Vis
(mi)
Weather Precip (in) Temperature (F) Relative
Humidity
Wind
Chill
(F)
Heat
Index
(F)
Pressure
Air Dwpt altimeter
(in)
sea level
(mb)
Rmks
10:55 pm CDT E 4.6 10.00 Fair -- 76.0 59.5 57% NA NA 29.95 M
10:35 pm CDT E 4.6 10.00 Fair -- 76.0 59.9 57% NA NA 29.95 M
9:55 pm CDT E 5.8 10.00 Fair -- 79.0 59.9 53% NA NA 29.94 M
8:55 pm CDT E 5.8 10.00 Fair -- 81.0 59.7 48% NA 81 29.92 M
7:55 pm CDT E 5.8 10.00 Fair -- 84.0 57.7 41% NA 83 29.90 M
6:55 pm CDT SE 9.2 10.00 Fair -- 88.0 56.5 34% NA 87 29.89 M
5:35 pm CDT SE 4.6 10.00 Partly Cloudy -- 91.0 56.8 31% NA 89 29.88 M
5:55 pm CDT N 0.0 10.00 Fair -- 89.0 56.5 33% NA 87 29.88 M
4:55 pm CDT E 6.9 10.00 Partly Cloudy -- 92.0 56.8 30% NA 90 29.88 M
3:55 pm CDT E 3.5 10.00 Partly Cloudy -- 90.0 56.8 32% NA 89 29.90 M
2:55 pm CDT E 11.5 10.00 Partly Cloudy -- 90.0 57.9 34% NA 89 29.92 M
1:55 pm CDT E 3.5 10.00 Partly Cloudy -- 87.0 58.5 39% NA 86 29.94 M
12:55 pm CDT SE 4.6 10.00 Partly Cloudy -- 86.0 60.1 41% NA 86 29.97 M
11:55 am CDT S 5.8 10.00 Fair -- 85.0 59.4 42% NA 85 29.99 M
10:55 am CDT SE 4.6 10.00 Fair -- 82.0 61.5 51% NA 83 30.01 M
9:55 am CDT SE 3.5 10.00 Fair -- 78.0 62.1 58% NA NA 30.00 M
8:55 am CDT N 0.0 10.00 Fair -- 71.0 60.8 70% NA NA 30.00 M
7:55 am CDT N 0.0 10.00 Fair -- 63.0 57.2 81% NA NA 29.99 M
6:55 am CDT N 0.0 10.00 Fair -- 63.0 58.5 86% NA NA 29.97 M
6:35 am CDT W 3.5 10.00 Fair -- 63.0 58.1 85% NA NA 29.96 M
5:55 am CDT W 3.5 10.00 Fair -- 64.0 58.3 83% NA NA 29.96 M
5:35 am CDT W 3.5 10.00 Fair -- 64.0 58.3 83% NA NA 29.95 M
4:55 am CDT N 0.0 10.00 Fair -- 64.0 58.6 82% NA NA 29.95 M
4:35 am CDT N 0.0 10.00 Fair -- 65.0 59.0 80% NA NA 29.95 M

Regional Weather Observation


Abilene, Abilene Regional Airport, TX (KABI)

Fair
79.0 F

Abilene, Dyess Air Force Base, TX (KDYS)

Fair
81.0 F

Gregory M Simmons Memorial Airport, TX (KGZN)

Fair
73.0 F

Brady, Curtis Field Airport, TX (KBBD)

NULL
75.0 F

Brownwood, Brownwood Regional Airport, TX (KBWD)

A Few Clouds
77.0 F

Sweetwater, Avenger Field Airport, TX (KSWW)

Fair
74.0 F
Advertise Here


Advertise Here